Location: Rounton
(54.4000°N, 1.3500°W)
Time: 22:38:12
(UTC+00:00)

Vanguard 3 - Pass Details

Date: 07 December 2021
Orbit: 508 x 3260 km, 33.3° (Epoch: 17 January)

Event Time Altitude Azimuth Distance (km) Brightness Sun altitude
Rises 02:41:22 0° 219° (SW) 6,769 - -45.8°
Reaches altitude 10° 02:46:32 10° 210° (SSW) 5,986 - -45.2°
Exits shadow 02:57:07 28° 179° (S) 4,846 10.8 -43.8°
Maximum altitude 03:01:45 30° 159° (SSE) 4,666 10.8 -43.2°
Drops below altitude 10° 03:16:00 10° 107° (ESE) 5,633 11.9 -41.3°
Sets 03:20:37 0° 98° (E) 6,333 12.4 -40.6°
